Terug naar catalogus

COSMOS 1481 DEB

LostHEO
NORAD 48345·DEBRIS·🇷🇺 Russia

Gelanceerd Jul 8, 1983 vanaf Plesetsk Cosmodrome

Loading…

Volgende Passages (komende 24 uur)

TLE

VerouderdSource: Space-Track

Epoch: Sep 15, 2025, 20:23 UTC

1 48345U 83070M   25258.84933451 -.00000020  00000-0  00000-0 0  9994
2 48345  65.5443  89.5271 6839262 331.6575   4.0281  2.00094374 86177

Volg COSMOS 1481 DEB in realtime met AllMySat

Download on the App Store